EHI
0 0 0 0 1 0 0 0 0 0 0 0 0 0 1 2 2 1 0 0 0 0 0 0 0 0 0 0 0 0 0 0 0 0 0 0 0 0 0 0 0 0 0 0
0 0 0 0 1 0 0 0 0 0 0 0 0 0 1 2 2 1 0 0 0 0 0 0 0 0 0 0 0 0 0 0 0 0 0 0 0 0 0 0 0 0 0 0
0 0 0 0 0 0 0 0 0 0 0 0 0 0 0 1 1 0 0 0 0 0 0 0 0 0 0 0 0 0 0 0 0 0 0 0 0 0 0 0 0 0 0 0
0 0 0 0 0 0 0 0 0 0 0 0 0 0 0 0 0 0 0 0 0 0 0 0 0 0 0 0 0 0 0 0 0 0 0 0 0 0 0 0 0 0 0 0
0 0 0 0 0 0 0 0 0 0 0 0 0 0 0 0 0 0 0 0 0 0 0 0 0 0 0 0 0 0 0 0 0 0 0 0 0 0 0 0 0 0 0 0
0 0 0 0 0 0 0 0 0 0 0 0 0 0 0 0 0 0 0 0 0 0 0 0 0 0 0 0 0 0 0 0 0 0 0 0 0 0 0 0 0 0 0 0
0 0 0 0 0 0 0 0 0 0 0 0 0 0 0 0 0 0 0 0 0 0 0 0 0 0 0 0 0 0 0 0 0 0 0 0 0 0 0 0 0 0 0 0
0 0 0 0 0 0 0 0 0 0 0 0 0 0 0 0 0 0 0 0 0 0 0 0 0 0 0 0 0 0 0 0 0 0 0 0 0 0 0 0 0 0 0 0
0 0 0 0 0 0 0 0 0 0 0 0 0 0 0 0 0 0 0 0 0 0 0 0 0 0 0 0 0 0 0 0 0 0 0 0 0 0 0 0 0 0 0 0
0 0 0 0 0 0 0 0 0 0 0 0 0 0 0 0 0 0 0 0 0 0 0 0 0 0 0 0 0 0 0 0 0 0 0 0 0 0 0 0 0 0 0 0
0 0 0 0 0 0 0 0 0 0 0 0 0 0 0 0 0 0 0 0 0 0 0 0 0 0 0 0 0 0 0 0 0 0 0 0 0 0 0 0 0 0 0 0
0 0 0 0 0 0 0 0 0 0 0 0 0 0 0 0 0 0 0 0 0 0 0 0 0 0 0 0 0 0 0 0 0 0 0 0 0 0 0 0 0 0 0 0
0 0 0 0 0 0 0 0 0 0 0 0 0 0 0 0 0 0 0 0 0 0 0 0 0 0 0 0 0 0 0 0 0 0 0 0 0 0 0 0 0 0 0 0
0 0 0 0 0 0 0 0 0 0 0 0 0 0 0 0 0 0 0 0 0 0 0 0 0 0 0 0 0 0 0 0 0 0 0 0 0 0 0 0 0 0 0 0
0 0 0 0 0 0 0 0 0 0 0 0 0 0 0 0 0 0 0 0 0 0 0 0 0 0 0 0 0 0 0 0 0 0 0 0 0 0 0 0 0 0 0 0
0 0 0 0 0 0 0 0 0 0 0 0 0 0 0 0 0 0 0 0 0 0 0 0 0 0 0 0 0 0 0 0 0 0 0 0 0 0 0 0 0 0 0 0
0 0 0 0 0 0 0 0 0 0 0 0 0 0 0 0 0 0 0 0 0 0 0 0 0 0 0 0 0 0 0 0 0 0 0 0 0 0 0 0 0 0 0 0
0 0 0 0 0 0 0 0 0 0 0 0 0 0 0 0 0 0 0 0 0 0 0 0 0 0 0 0 0 0 0 0 0 0 0 0 0 0 0 0 0 0 0 0
0 0 0 0 0 0 0 0 0 0 0 0 0 0 0 0 0 0 0 0 0 0 0 0 0 0 0 0 0 0 0 0 0 0 0 0 0 0 0 0 0 0 0 0
0 0 0 0 0 0 0 0 0 0 0 0 0 0 0 0 0 0 0 0 0 0 0 0 0 0 0 0 0 0 0 0 0 0 0 0 0 0 0 0 0 0 0 0
0 0 0 0 0 0 0 0 0 0 0 0 0 0 0 0 0 0 0 0 0 0 0 0 0 0 0 0 0 0 0 0 0 0 0 0 0 0 0 0 0 0 0 0
0 0 0 0 0 0 0 0 0 0 0 0 0 0 0 0 0 0 0 0 0 0 0 0 0 0 0 0 0 0 0 0 0 0 0 0 0 0 0 0 0 0 0 0
0 0 0 0 0 0 0 0 0 0 0 0 0 0 0 0 0 0 0 0 0 0 0 0 0 0 0 0 0 0 0 0 0 0 0 0 0 0 0 0 0 0 0 0
0 0 0 0 0 0 0 0 0 0 0 0 0 0 0 0 0 0 0 0 0 0 0 0 0 0 0 0 0 0 0 0 0 0 0 0 0 0 0 0 0 0 0 0
0 0 0 0 0 0 0 0 0 0 0 0 0 0 0 0 0 0 0 0 0 0 0 0 0 0 0 0 0 0 0 0 0 0 0 0 0 0 0 0 0 0 0 0
0 0 0 0 0 0 0 0 0 0 0 0 0 0 0 0 0 0 0 0 0 0 0 0 0 0 0 0 0 0 0 0 0 0 0 0 0 0 0 0 0 0 0 0
Wind_Speed
13 11 10 5 3 5 6 8 9 1 4 3 7 6 6 9 6 4 4 3 1 2 4 6 4 3 4 5 6 6 6 5 4 3 4 4 4 4 3 3 4 4 4 4
12 13 8 5 4 6 9 8 8 3 4 3 8 8 3 8 5 3 2 3 2 2 3 5 4 4 4 5 5 6 6 5 5 3 3 4 3 3 3 3 4 5 5 4
12 6 7 7 8 8 7 4 6 8 5 7 8 8 6 8 6 4 2 1 3 3 4 4 4 4 4 4 5 5 5 6 6 6 3 4 4 3 3 4 3 4 4 4
6 3 4 6 5 3 5 5 4 6 8 6 3 3 7 8 6 6 4 2 1 2 3 3 3 4 4 5 5 6 6 6 6 6 5 6 5 4 5 4 3 4 4 4
5 8 7 6 2 2 4 3 5 7 8 9 6 5 6 6 4 4 4 2 2 2 2 2 3 3 4 5 4 4 4 5 5 5 5 4 4 4 4 5 5 4 4 3
5 4 1 4 5 2 1 5 8 7 7 7 3 2 4 3 5 5 4 3 3 3 2 2 3 3 3 3 3 3 3 3 4 4 5 4 5 5 6 6 5 4 3 3
7 6 4 3 4 5 5 6 5 6 6 2 5 1 5 7 6 4 3 3 3 3 2 2 2 2 2 2 2 3 3 3 4 5 5 5 5 5 6 5 5 4 3 3
10 9 8 5 2 3 3 6 5 6 3 2 5 2 7 8 6 4 3 2 1 2 2 2 2 2 1 1 2 2 3 3 3 4 4 5 6 4 4 5 5 5 4 4
4 6 7 4 0 4 5 3 3 5 8 5 5 8 8 5 6 4 3 2 2 2 3 2 2 1 1 1 2 2 3 3 3 4 4 4 5 5 5 5 5 4 5 5
3 5 7 5 3 4 5 7 3 4 5 4 3 5 5 5 3 3 2 2 2 2 2 2 2 1 0 1 0 1 2 2 3 4 4 4 4 4 4 4 5 5 6 6
5 4 8 7 6 5 6 5 3 4 4 4 3 4 5 5 3 1 0 2 2 2 2 2 2 1 1 0 1 0 1 1 3 3 4 4 4 4 4 4 4 5 5 6
2 6 5 8 5 2 2 4 3 3 3 1 2 3 4 4 2 1 1 1 2 3 2 2 2 1 1 0 1 1 1 2 2 2 3 4 3 4 4 5 5 5 6 6
3 5 3 6 5 5 5 5 4 4 4 4 2 3 4 4 3 2 1 1 2 3 3 3 3 2 1 1 0 1 0 1 1 1 2 3 4 4 5 5 5 5 5 6
4 8 8 4 4 4 6 6 5 5 4 4 1 2 3 3 2 2 2 1 2 3 3 3 3 3 3 2 2 1 1 1 1 1 1 2 3 4 4 4 4 5 5 5
4 9 9 2 1 2 2 5 7 8 7 6 5 5 4 4 3 1 2 2 2 2 3 3 4 3 3 3 3 3 2 1 1 0 1 2 3 4 4 4 4 5 5 6
6 8 7 5 4 5 7 7 8 8 8 8 7 5 2 4 2 1 2 3 2 2 2 2 3 3 3 3 3 2 2 2 1 1 1 1 1 2 3 4 4 4 4 4
7 8 8 7 6 6 9 12 12 10 8 6 6 2 3 2 1 1 1 1 2 2 2 2 2 2 2 1 2 2 2 1 1 0 1 1 1 2 2 4 4 4 4 4
7 8 5 6 5 7 1 4 7 8 8 6 4 1 1 1 1 1 1 0 1 2 2 2 2 2 2 3 4 3 3 2 1 1 0 1 1 1 1 2 3 3 3 4
6 5 5 6 7 6 6 6 6 6 6 7 5 3 2 0 2 3 4 2 1 2 2 2 1 1 2 2 2 1 3 3 3 2 1 1 1 1 1 2 3 2 2 3
5 6 5 5 6 5 4 11 7 3 4 6 5 3 2 2 1 4 5 4 3 3 2 2 1 1 0 2 3 1 2 1 2 2 1 1 0 1 2 2 3 3 3 3
7 6 7 8 7 2 8 9 7 4 1 7 6 4 2 1 5 5 4 4 3 3 3 1 0 0 1 1 1 2 2 1 2 2 0 1 2 3 3 3 3 4 3 3
9 6 8 7 7 4 10 7 5 4 6 5 5 4 3 4 5 4 4 4 3 3 3 2 1 1 1 0 1 2 2 1 1 1 1 3 4 4 3 3 4 4 4 4
7 6 3 3 1 6 5 4 4 3 3 4 5 4 4 3 3 4 3 3 3 2 3 3 2 1 1 2 2 2 2 1 1 3 4 5 5 5 5 5 5 4 4 3
7 6 5 3 5 8 6 5 4 2 3 4 4 4 3 3 3 4 3 3 3 1 2 2 2 2 2 2 2 2 2 2 3 4 5 5 5 5 4 4 4 3 3 3
4 3 5 7 3 4 6 6 7 5 5 4 4 4 3 3 3 3 3 3 3 2 2 2 1 1 2 2 1 0 1 2 4 5 4 5 5 4 3 3 4 4 4 4
9 6 7 6 6 7 8 10 10 8 7 6 6 6 4 3 3 4 4 4 3 3 3 3 2 2 3 4 4 4 3 3 4 5 5 3 3 3 3 3 4 8 9 9
Wind_Direction
200 216 222 213 241 302 299 292 297 47 117 290 288 281 174 163 178 216 240 251 270 63 62 78 58 40 22 25 15 3 7 3 12 6 341 332 331 326 324 330 337 327 317 315
201 219 206 165 152 248 266 281 303 19 89 314 292 285 201 152 172 193 276 308 336 42 38 69 51 39 31 30 18 3 9 5 13 2 345 325 324 312 316 331 337 336 328 320
213 204 197 201 208 240 270 302 341 334 318 258 263 266 186 142 153 166 201 277 329 23 25 34 35 28 29 35 21 4 11 8 12 2 1 342 333 329 341 340 336 326 320 317
197 176 211 225 235 285 309 43 343 307 294 286 247 295 142 145 164 175 175 173 123 61 50 41 40 30 22 34 26 7 13 11 12 0 1 346 345 344 334 330 322 324 328 330
174 180 211 235 67 0 29 11 293 282 280 281 251 264 126 146 150 138 127 134 109 93 76 51 58 47 32 33 26 8 9 11 7 351 342 338 352 339 326 328 333 338 335 327
132 172 213 83 86 39 327 262 252 247 256 258 198 264 112 99 77 85 103 105 103 98 99 96 73 70 50 38 22 356 3 4 353 342 341 353 356 340 334 341 342 337 333 329
165 163 122 131 173 185 237 268 263 220 216 174 108 174 82 87 73 62 69 77 85 102 95 85 74 63 50 24 15 352 359 353 356 347 346 354 356 347 344 348 341 339 336 335
191 175 167 183 254 296 256 284 300 313 323 105 165 144 102 99 100 95 97 97 112 129 110 85 76 75 57 13 20 1 351 344 350 347 352 358 359 356 350 347 343 342 338 332
255 125 116 121 56 302 281 257 353 314 287 277 158 121 123 135 139 140 151 159 177 148 135 137 109 62 39 28 20 360 351 349 354 356 351 2 2 355 347 344 347 345 338 334
300 133 157 151 201 213 293 330 296 267 310 298 151 126 117 132 122 133 163 160 158 153 154 141 130 124 57 33 354 2 350 353 7 357 355 3 357 347 337 339 351 344 334 336
286 203 160 173 210 207 197 220 250 286 285 307 352 75 73 79 71 51 77 122 133 148 152 139 133 143 151 293 299 299 360 37 33 4 357 353 347 339 335 348 351 344 340 342
282 301 189 171 137 79 280 287 289 284 316 292 284 102 103 109 112 111 32 105 134 141 148 154 155 170 180 214 319 347 28 45 52 18 349 337 338 347 353 357 360 352 347 346
340 280 240 154 158 172 215 224 254 289 294 273 284 119 164 138 128 125 125 139 143 152 170 177 162 184 193 195 231 310 35 68 73 51 337 338 351 360 356 359 360 347 349 350
333 272 276 319 30 146 192 192 208 240 261 281 297 90 136 94 86 102 128 156 160 171 181 183 171 202 195 201 202 206 167 154 169 137 347 356 352 359 357 360 352 347 353 350
250 270 274 266 65 311 244 205 202 228 258 288 339 356 0 57 69 74 146 168 184 193 194 191 185 203 197 200 198 186 168 178 163 111 49 29 360 359 357 349 350 359 353 350
240 274 274 249 216 233 249 235 221 225 243 263 288 299 71 90 110 166 186 166 184 204 204 199 199 191 205 214 186 162 156 164 179 179 126 93 2 356 347 340 351 353 336 338
222 251 271 260 208 221 246 223 214 218 222 232 253 273 70 31 13 15 43 138 183 198 177 188 217 190 196 192 117 109 106 125 203 160 123 115 38 0 344 344 347 336 335 354
242 242 256 262 206 235 94 90 176 206 220 223 240 285 61 14 62 104 106 93 163 146 153 173 201 175 191 179 145 146 167 190 178 117 251 174 166 285 321 325 321 320 340 342
276 272 263 264 260 247 163 157 164 190 216 203 215 202 157 185 216 180 137 101 80 92 105 126 173 179 192 140 122 182 195 178 165 159 256 243 175 193 292 304 303 311 319 312
250 273 262 267 269 274 124 132 141 186 234 177 174 163 151 236 246 104 103 99 91 87 82 78 110 284 258 120 115 275 272 207 160 158 213 270 166 209 264 287 298 296 287 284
196 223 236 261 267 266 111 124 141 203 151 134 141 144 161 86 74 93 94 101 103 106 103 90 285 340 7 47 125 248 278 347 102 109 70 299 271 245 234 243 270 282 285 288
193 209 211 221 239 220 142 156 178 105 107 116 120 114 97 85 91 98 97 105 116 126 134 155 227 185 147 348 303 282 290 17 81 131 220 254 258 259 255 230 244 259 269 278
214 230 230 216 144 104 147 135 87 74 119 110 111 105 111 122 119 109 106 109 121 132 144 159 191 219 227 205 196 264 288 264 221 212 227 239 247 241 233 233 242 250 253 259
227 216 247 259 167 167 174 146 141 143 108 100 108 121 134 137 122 118 113 105 108 109 116 138 179 209 246 237 177 205 254 257 253 243 235 235 242 244 237 222 224 237 250 262
264 212 224 245 209 159 183 183 173 162 158 152 139 128 123 120 113 113 108 94 84 79 78 91 66 18 341 331 352 58 308 300 286 275 258 246 242 235 238 239 231 233 233 224
267 243 226 234 216 206 195 184 175 170 174 167 152 138 127 122 115 106 94 84 71 59 55 67 61 45 3 358 16 21 4 338 319 311 310 303 294 269 242 244 255 239 234 239